Simultaneous Nadir Overpasses (SNOs) Predictions

Prediction of SNOs between AQUA and NOAA-19 Satellite Orbit:

Table of predicted SNOs for the next 14.0 days since TLE Epoch: 4/6/2024
Index Date (AQUA) Time (AQUA) Lat,Lon (AQUA) SZA (AQUA ) Date (NOAA-19) Time (NOAA-19) Lat,Lon (NOAA-19) SZA (NOAA-19 ) Distance(km) Time Diff (sec)
1 04/06/2024 09:54:27 -75.83,-152.44 110.93 04/06/2024 09:54:05 -75.82,-152.42 110.93 1.32 22
2 04/06/2024 10:43:51 75.87, 15.08 69.11 04/06/2024 10:45:04 75.92, 15.20 69.16 6.54 73
3 04/08/2024 13:45:08 75.78, -29.92 68.21 04/08/2024 13:44:13 75.78, -30.04 68.22 3.10 55
4 04/08/2024 14:34:32 -75.87, 137.45 111.71 04/08/2024 14:35:09 -75.84, 137.45 111.74 3.26 37
5 04/10/2024 18:25:12 75.81, -99.99 67.43 04/10/2024 18:25:16 75.81,-100.12 67.44 3.73 4
6 04/12/2024 22:15:52 -75.82, 22.36 113.36 04/12/2024 22:15:20 -75.81, 22.42 113.36 1.69 32
7 04/12/2024 23:05:16 75.87,-170.15 66.69 04/12/2024 23:06:18 75.89,-170.07 66.70 3.06 62
8 04/15/2024 02:06:31 75.77, 144.87 65.82 04/15/2024 02:05:26 75.76, 144.78 65.82 2.46 65
9 04/15/2024 02:55:55 -75.86, -47.74 114.11 04/15/2024 02:56:23 -75.86, -47.62 114.10 3.29 28
10 04/17/2024 06:46:33 75.80, 74.81 65.07 04/17/2024 06:46:28 75.82, 74.78 65.10 2.98 5
11 04/19/2024 10:37:11 -75.80,-162.82 115.69 04/19/2024 10:36:34 -75.79,-162.79 115.69 0.91 37



Historial Predications of SNOs between AQUA and NOAA-19
